KB9ZI Weather Reports


time (UTC)temp
C
wind
direction
speed
KPH
gust
KPH
rain 1hr
cm
rain 24hr
cm
rain mn
cm
humidity
%
barometer
mb
20260508203227 21 240 0.0 14.5 0.00 0.00 0.00 29 1002.5
20260508203124 21 244 0.0 14.5 0.00 0.00 0.00 29 1002.6
20260508203033 21 224 0.0 14.5 0.00 0.00 0.00 28 1002.6
20260508203005 21 268 0.0 14.5 0.00 0.00 0.00 29 1002.8
20260508202938 21 224 0.0 14.5 0.00 0.00 0.00 28 1002.6
20260508202524 21 248 0.0 11.3 0.00 0.00 0.00 29 1002.7
20260508202323 21 245 0.0 11.3 0.00 0.00 0.00 27 1002.8
20260508202229 21 210 0.0 14.5 0.00 0.00 0.00 28 1002.8
20260508202125 21 210 0.0 14.5 0.00 0.00 0.00 29 1002.8
20260508202017 21 255 0.0 14.5 0.00 0.00 0.00 29 1003.0
20260508202006 21 216 0.0 14.5 0.00 0.00 0.00 29 1002.8
20260508201938 21 255 0.0 14.5 0.00 0.00 0.00 29 1003.0
20260508201525 21 248 0.0 14.5 0.00 0.00 0.00 29 1003.0
20260508201427 21 251 0.0 14.5 0.00 0.00 0.00 29 1002.9
20260508201228 21 230 0.0 11.3 0.00 0.00 0.00 29 1002.9
20260508201124 21 243 0.0 11.3 0.00 0.00 0.00 32 1002.9
20260508200924 21 254 0.0 11.3 0.00 0.00 0.00 30 1003.0
20260508200727 21 234 0.0 11.3 0.00 0.00 0.00 31 1002.9
20260508200523 21 235 0.0 11.3 0.00 0.00 0.00 30 1003.0
20260508200325 21 244 0.0 9.7 0.00 0.00 0.00 28 1003.0
20260508200226 21 257 0.0 9.7 0.00 0.00 0.00 27 1003.2
20260508200122 21 251 0.0 9.7 0.00 0.00 0.00 31 1003.0
20260508200036 22 247 0.0 9.7 0.00 0.00 0.00 29 1003.1
20260508200031 22 247 0.0 9.7 0.00 0.00 0.00 29 1003.0
20260508200003 21 207 0.0 8.0 0.00 0.00 0.00 31 1003.0
20260508195518 22 340 0.0 9.7 0.00 0.00 0.00 31 1003.2
20260508195319 22 221 0.0 9.7 0.00 0.00 0.00 31 1003.2
20260508195227 22 172 0.0 9.7 0.00 0.00 0.00 28 1003.2
20260508195115 22 231 0.0 9.7 0.00 0.00 0.00 29 1003.2
20260508195030 22 233 0.0 9.7 0.00 0.00 0.00 28 1003.3
20260508195000 22 149 0.0 9.7 0.00 0.00 0.00 34 1003.3
20260508194709 22 266 0.0 9.7 0.00 0.00 0.00 28 1003.4
20260508194509 21 250 0.0 16.1 0.00 0.00 0.00 32 1003.4
20260508194307 21 234 0.0 16.1 0.00 0.00 0.00 29 1003.4
20260508194227 21 250 0.0 16.1 0.00 0.00 0.00 29 1003.4
20260508194103 21 250 0.0 16.1 0.00 0.00 0.00 29 1003.4
20260508194018 20 252 0.0 16.1 0.00 0.00 0.00 29 1003.5
20260508193953 20 252 0.0 16.1 0.00 0.00 0.00 29 1003.5
20260508193648 20 252 0.0 16.1 0.00 0.00 0.00 29 1003.5
20260508193449 20 241 0.0 14.5 0.00 0.00 0.00 32 1003.6
20260508193247 20 221 0.0 14.5 0.00 0.00 0.00 29 1003.6
20260508193226 20 220 0.0 14.5 0.00 0.00 0.00 29 1003.6
20260508193144 20 259 0.0 14.5 0.00 0.00 0.00 31 1003.6
20260508193028 20 259 0.0 14.5 0.00 0.00 0.00 31 1003.6
20260508192956 20 251 0.0 14.5 0.00 0.00 0.00 29 1003.7
20260508192647 20 204 0.0 14.5 0.00 0.00 0.00 31 1003.7
20260508192446 20 237 0.0 14.5 0.00 0.00 0.00 33 1003.7
20260508192246 20 237 0.0 16.1 0.00 0.00 0.00 29 1003.7
20260508192227 20 251 0.0 16.1 0.00 0.00 0.00 29 1003.7
20260508192045 20 248 0.0 16.1 0.00 0.00 0.00 28 1003.7
20260508191847 20 241 0.0 17.7 0.00 0.00 0.00 29 1003.7
20260508191719 20 255 0.0 17.7 0.00 0.00 0.00 31 1003.7
20260508191641 20 258 0.0 17.7 0.00 0.00 0.00 30 1003.7
20260508191604 20 309 0.0 17.7 0.00 0.00 0.00 29 1003.7
20260508191515 20 210 0.0 17.7 0.00 0.00 0.00 29 1003.7
20260508191437 20 216 0.0 17.7 0.00 0.00 0.00 29 1003.6
20260508191040 20 227 0.0 17.7 0.00 0.00 0.00 30 1003.8
20260508190840 20 219 0.0 16.1 0.00 0.00 0.00 30 1003.9
20260508190719 20 252 0.0 16.1 0.00 0.00 0.00 27 1003.8
20260508190642 20 257 0.0 16.1 0.00 0.00 0.00 28 1003.8
20260508190522 21 255 0.0 14.5 0.00 0.00 0.00 31 1003.8
20260508190502 21 248 0.0 14.5 0.00 0.00 0.00 28 1003.9
20260508190434 21 212 0.0 14.5 0.00 0.00 0.00 31 1003.8
20260508190033 21 255 0.0 14.5 0.00 0.00 0.00 29 1003.8
20260508185832 21 285 0.0 14.5 0.00 0.00 0.00 32 1003.8
20260508185712 21 254 0.0 14.5 0.00 0.00 0.00 27 1003.8
20260508185632 21 0 0.0 14.5 0.00 0.00 0.00 30 1003.8
20260508185515 21 266 0.0 14.5 0.00 0.00 0.00 28 1003.8
20260508185456 21 271 0.0 14.5 0.00 0.00 0.00 30 1003.7
20260508185428 21 258 0.0 14.5 0.00 0.00 0.00 29 1003.9
20260508185126 21 259 0.0 14.5 0.00 0.00 0.00 29 1003.9
20260508184828 21 261 0.0 14.5 0.00 0.00 0.00 32 1003.8
20260508184711 21 265 0.0 14.5 0.00 0.00 0.00 28 1003.9
20260508184629 20 282 0.0 14.5 0.00 0.00 0.00 31 1003.9
20260508184427 20 247 0.0 14.5 0.00 0.00 0.00 29 1004.0
20260508184227 21 228 0.0 19.3 0.00 0.00 0.00 29 1003.9
20260508184205 21 251 0.0 19.3 0.00 0.00 0.00 29 1003.9
20260508184031 21 248 0.0 19.3 0.00 0.00 0.00 27 1004.0
20260508184000 21 276 0.0 20.9 0.00 0.00 0.00 29 1004.2
20260508183934 21 238 0.0 20.9 0.00 0.00 0.00 28 1004.0
20260508183623 21 309 0.0 20.9 0.00 0.00 0.00 29 1004.2
20260508183526 21 250 0.0 22.5 0.00 0.00 0.00 30 1004.3
20260508183222 21 262 0.0 22.5 0.00 0.00 0.00 28 1004.3
20260508183207 21 262 0.0 22.5 0.00 0.00 0.00 28 1004.2
20260508183009 21 230 0.0 27.4 0.00 0.00 0.00 29 1004.2
20260508183002 21 223 0.0 27.4 0.00 0.00 0.00 29 1004.2
20260508182930 21 217 0.0 27.4 0.00 0.00 0.00 29 1004.3
20260508182610 21 245 0.0 27.4 0.00 0.00 0.00 30 1004.3
20260508182408 21 235 0.0 27.4 0.00 0.00 0.00 31 1004.3
20260508182203 21 237 0.0 27.4 0.00 0.00 0.00 30 1004.2
20260508182011 21 231 0.0 17.7 0.00 0.00 0.00 28 1004.3
20260508182006 21 235 0.0 20.9 0.00 0.00 0.00 30 1004.3
20260508181934 21 233 0.0 20.9 0.00 0.00 0.00 29 1004.3
20260508181605 21 250 0.0 17.7 0.00 0.00 0.00 28 1004.4
20260508181403 21 265 0.0 16.1 0.00 0.00 0.00 26 1004.5
20260508181203 21 252 0.0 16.1 0.00 0.00 0.00 29 1004.4
20260508181002 20 271 0.0 16.1 0.00 0.00 0.00 27 1004.5
20260508180806 21 259 0.0 16.1 0.00 0.00 0.00 28 1004.6
20260508180708 21 258 0.0 16.1 0.00 0.00 0.00 28 1004.6
20260508180605 21 258 0.0 16.1 0.00 0.00 0.00 28 1004.7
20260508180459 21 272 0.0 16.1 0.00 0.00 0.00 29 1004.7
20260508180201 20 227 0.0 19.3 0.00 0.00 0.00 31 1004.7
20260508180133 20 237 0.0 19.3 0.00 0.00 0.00 31 1004.7
20260508180002 20 234 0.0 25.7 0.00 0.00 0.00 28 1004.8
20260508175800 20 231 0.0 25.7 0.00 0.00 0.00 31 1004.7
20260508175632 20 292 0.0 25.7 0.00 0.00 0.00 27 1004.7
20260508175601 21 251 0.0 25.7 0.00 0.00 0.00 32 1004.8
20260508175401 21 223 0.0 25.7 0.00 0.00 0.00 34 1004.8
20260508175202 21 250 0.0 25.7 0.00 0.00 0.00 30 1004.8
20260508175136 21 271 0.0 25.7 0.00 0.00 0.00 29 1004.8
20260508174959 21 250 0.0 22.5 0.00 0.00 0.00 30 1004.9
20260508174856 20 259 0.0 22.5 0.00 0.00 0.00 30 1004.9
20260508174630 21 231 0.0 22.5 0.00 0.00 0.00 29 1005.0
20260508174556 21 281 0.0 22.5 0.00 0.00 0.00 29 1004.9
20260508174355 21 268 0.0 22.5 0.00 0.00 0.00 30 1004.9
20260508174153 21 282 0.0 16.1 0.00 0.00 0.00 29 1004.9
20260508174131 21 223 0.0 16.1 0.00 0.00 0.00 28 1004.9
20260508173955 21 230 0.0 16.1 0.00 0.00 0.00 29 1005.1
20260508173752 21 257 0.0 19.3 0.00 0.00 0.00 28 1005.2
20260508173631 21 164 0.0 19.3 0.00 0.00 0.00 35 1005.1
20260508173552 21 0 0.0 19.3 0.00 0.00 0.00 33 1005.1
20260508173353 20 8 0.0 20.9 0.00 0.00 0.00 30 1005.2
20260508173246 20 206 0.0 20.9 0.00 0.00 0.00 30 1005.2
20260508173131 20 202 0.0 20.9 0.00 0.00 0.00 30 1005.2
20260508172950 20 245 0.0 20.9 0.00 0.00 0.00 29 1005.4
20260508172750 20 245 0.0 20.9 0.00 0.00 0.00 32 1005.3
20260508172631 20 234 0.0 20.9 0.00 0.00 0.00 29 1005.4
20260508172551 20 227 0.0 20.9 0.00 0.00 0.00 31 1005.3
20260508172349 20 252 0.0 16.1 0.00 0.00 0.00 35 1005.4
20260508172153 20 290 0.0 16.1 0.00 0.00 0.00 29 1005.4
20260508172132 20 283 0.0 16.1 0.00 0.00 0.00 29 1005.4
20260508171950 20 233 0.0 16.1 0.00 0.00 0.00 33 1005.5
20260508171932 20 237 0.0 11.3 0.00 0.00 0.00 31 1005.5
20260508171928 20 217 0.0 8.0 0.00 0.00 0.00 34 1005.5
20260508171903 20 248 0.0 16.1 0.00 0.00 0.00 31 1005.5
20260508171347 20 195 0.0 8.0 0.00 0.00 0.00 31 1005.5
20260508171147 20 285 0.0 11.3 0.00 0.00 0.00 32 1005.5
20260508171131 20 272 0.0 14.5 0.00 0.00 0.00 32 1005.5
20260508170946 20 240 0.0 14.5 0.00 0.00 0.00 34 1005.6
20260508170933 19 250 0.0 14.5 0.00 0.00 0.00 33 1005.7
20260508170901 19 247 0.0 14.5 0.00 0.00 0.00 31 1005.7
20260508170544 19 234 0.0 14.5 0.00 0.00 0.00 36 1005.8
20260508170335 19 234 0.0 14.5 0.00 0.00 0.00 32 1005.7
20260508170133 19 214 0.0 17.7 0.00 0.00 0.00 32 1005.8
20260508170129 19 217 0.0 17.7 0.00 0.00 0.00 32 1005.8
20260508170035 19 234 0.0 17.7 0.00 0.00 0.00 32 1005.9
20260508165928 19 320 0.0 25.7 0.00 0.00 0.00 32 1005.9
20260508165856 19 240 0.0 17.7 0.00 0.00 0.00 32 1005.9
20260508165529 19 224 0.0 25.7 0.00 0.00 0.00 31 1005.9
20260508165326 19 226 0.0 25.7 0.00 0.00 0.00 31 1005.9
20260508165130 20 257 0.0 25.7 0.00 0.00 0.00 33 1006.0
20260508165124 20 255 0.0 25.7 0.00 0.00 0.00 33 1006.0
20260508164924 20 255 0.0 25.7 0.00 0.00 0.00 36 1006.0
20260508164723 19 193 0.0 22.5 0.00 0.00 0.00 32 1006.0
20260508164628 19 274 0.0 11.3 0.00 0.00 0.00 36 1005.9
20260508164620 18 210 0.0 11.3 0.00 0.00 0.00 34 1006.0
20260508164326 18 210 0.0 11.3 0.00 0.00 0.00 30 1006.0
20260508164122 18 210 0.0 11.3 0.00 0.00 0.00 30 1006.1
20260508163923 18 235 0.0 11.3 0.00 0.00 0.00 35 1006.1
20260508163919 18 252 0.0 11.3 0.00 0.00 0.00 33 1006.3
20260508163852 18 224 0.0 11.3 0.00 0.00 0.00 33 1006.2
20260508163510 18 292 0.0 11.3 0.00 0.00 0.00 34 1006.3
20260508163307 18 230 0.0 11.3 0.00 0.00 0.00 35 1006.2
20260508163130 18 251 0.0 11.3 0.00 0.00 0.00 39 1006.2
20260508163107 18 251 0.0 11.3 0.00 0.00 0.00 39 1006.1
20260508163012 18 217 0.0 11.3 0.00 0.00 0.00 36 1006.2
20260508162916 18 220 0.0 11.3 0.00 0.00 0.00 35 1006.2
20260508162841 18 252 0.0 11.3 0.00 0.00 0.00 36 1006.2
20260508162506 18 241 0.0 11.3 0.00 0.00 0.00 35 1006.2
20260508162306 17 271 0.0 11.3 0.00 0.00 0.00 35 1006.3
20260508162125 17 264 0.0 11.3 0.00 0.00 0.00 35 1006.4
20260508162105 17 252 0.0 11.3 0.00 0.00 0.00 36 1006.3
20260508161934 18 261 0.0 11.3 0.00 0.00 0.00 36 1006.4
20260508161923 18 220 0.0 11.3 0.00 0.00 0.00 35 1006.3
20260508161855 18 261 0.0 11.3 0.00 0.00 0.00 36 1006.4
20260508161506 18 219 0.0 11.3 0.00 0.00 0.00 36 1006.3
20260508161239 18 217 0.0 20.9 0.00 0.00 0.00 36 1006.4
20260508161120 18 224 0.0 20.9 0.00 0.00 0.00 36 1006.4
20260508161031 18 245 0.0 20.9 0.00 0.00 0.00 39 1006.5
20260508160829 18 254 0.0 20.9 0.00 0.00 0.00 36 1006.5
20260508160621 18 257 0.0 20.9 0.00 0.00 0.00 37 1006.5
20260508160430 18 207 0.0 20.9 0.00 0.00 0.00 37 1006.5
20260508160229 18 248 0.0 14.5 0.00 0.00 0.00 38 1006.4
20260508160139 17 248 0.0 9.7 0.00 0.00 0.00 39 1006.4
20260508160122 18 237 0.0 14.5 0.00 0.00 0.00 42 1006.6
20260508155832 17 237 0.0 9.7 0.00 0.00 0.00 41 1006.5
20260508155622 16 224 0.0 9.7 0.00 0.00 0.00 40 1006.6
20260508155433 16 224 0.0 11.3 0.00 0.00 0.00 40 1006.7
20260508155232 16 265 0.0 19.3 0.00 0.00 0.00 38 1006.6
20260508155114 16 264 0.0 19.3 0.00 0.00 0.00 39 1006.7
20260508155034 16 214 0.0 19.3 0.00 0.00 0.00 39 1006.7
20260508154833 16 186 0.0 19.3 0.00 0.00 0.00 39 1006.7
20260508154623 16 240 0.0 19.3 0.00 0.00 0.00 39 1006.8
20260508154614 16 212 0.0 19.3 0.00 0.00 0.00 39 1006.8
20260508154520 16 248 0.0 19.3 0.00 0.00 0.00 37 1006.7
20260508154205 16 241 0.0 16.1 0.00 0.00 0.00 37 1006.7
20260508154116 16 252 0.0 16.1 0.00 0.00 0.00 37 1006.7
20260508154005 16 223 0.0 19.3 0.00 0.00 0.00 37 1006.7
20260508153802 16 241 0.0 19.3 0.00 0.00 0.00 37 1006.8
20260508153603 16 259 0.0 19.3 0.00 0.00 0.00 39 1006.8
20260508153401 16 199 0.0 19.3 0.00 0.00 0.00 40 1006.8
20260508153202 16 219 0.0 19.3 0.00 0.00 0.00 36 1006.9
20260508153104 16 219 0.0 19.3 0.00 0.00 0.00 39 1006.9
20260508153003 16 237 0.0 17.7 0.00 0.00 0.00 40 1006.9
20260508152736 16 221 0.0 17.7 0.00 0.00 0.00 38 1006.8
20260508152604 16 281 0.0 19.3 0.00 0.00 0.00 37 1006.9
20260508152534 16 213 0.0 19.3 0.00 0.00 0.00 38 1006.9
20260508152330 16 223 0.0 19.3 0.00 0.00 0.00 38 1007.0
20260508152131 16 238 0.0 19.3 0.00 0.00 0.00 40 1006.9
20260508152106 16 251 0.0 19.3 0.00 0.00 0.00 40 1006.9
20260508152032 16 226 0.0 19.3 0.00 0.00 0.00 40 1006.9
20260508151727 15 233 0.0 19.3 0.00 0.00 0.00 39 1006.9
20260508151604 15 190 0.0 16.1 0.00 0.00 0.00 39 1006.9
20260508151524 15 262 0.0 16.1 0.00 0.00 0.00 39 1006.9
20260508151324 15 196 0.0 16.1 0.00 0.00 0.00 39 1007.0
20260508151125 15 258 0.0 16.1 0.00 0.00 0.00 39 1007.0
20260508151103 15 258 0.0 16.1 0.00 0.00 0.00 39 1007.1
20260508150906 15 244 0.0 16.1 0.00 0.00 0.00 39 1007.0
20260508150709 15 223 0.0 16.1 0.00 0.00 0.00 39 1007.0
20260508150603 15 183 0.0 17.7 0.00 0.00 0.00 41 1007.1
20260508150511 15 186 0.0 17.7 0.00 0.00 0.00 40 1007.1
20260508150409 15 206 0.0 17.7 0.00 0.00 0.00 41 1007.1
20260508145906 15 206 0.0 17.7 0.00 0.00 0.00 40 1007.1
20260508145701 15 223 0.0 19.3 0.00 0.00 0.00 39 1007.1
20260508145601 15 257 0.0 19.3 0.00 0.00 0.00 39 1007.1
20260508145501 15 220 0.0 19.3 0.00 0.00 0.00 40 1007.1
20260508145359 15 247 0.0 19.3 0.00 0.00 0.00 40 1007.1
20260508145101 15 240 0.0 19.3 0.00 0.00 0.00 44 1007.2
20260508144901 15 224 0.0 19.3 0.00 0.00 0.00 41 1007.1
20260508144702 15 206 0.0 19.3 0.00 0.00 0.00 40 1007.2
20260508144602 15 226 0.0 19.3 0.00 0.00 0.00 41 1007.2
20260508144501 15 230 0.0 19.3 0.00 0.00 0.00 40 1007.2
20260508144301 15 207 0.0 16.1 0.00 0.00 0.00 41 1007.4
20260508144102 14 212 0.0 16.1 0.00 0.00 0.00 41 1007.2
20260508143838 14 228 0.0 19.3 0.00 0.00 0.00 42 1007.3
20260508143738 14 258 0.0 19.3 0.00 0.00 0.00 42 1007.2
20260508143546 14 204 0.0 19.3 0.00 0.00 0.00 41 1007.3
20260508143436 14 206 0.0 19.3 0.00 0.00 0.00 42 1007.3
20260508143230 14 193 0.0 19.3 0.00 0.00 0.00 42 1007.3
20260508143046 14 193 0.0 19.3 0.00 0.00 0.00 42 1007.2
20260508143030 14 192 0.0 19.3 0.00 0.00 0.00 42 1007.2
20260508142830 14 216 0.0 19.3 0.00 0.00 0.00 43 1007.2
20260508142631 14 200 0.0 19.3 0.00 0.00 0.00 42 1007.3
20260508142545 14 209 0.0 19.3 0.00 0.00 0.00 42 1007.3
20260508142430 13 214 0.0 19.3 0.00 0.00 0.00 42 1007.2
20260508142229 13 195 0.0 16.1 0.00 0.00 0.00 44 1007.3
20260508142129 13 206 0.0 16.1 0.00 0.00 0.00 44 1007.3
20260508142044 13 192 0.0 16.1 0.00 0.00 0.00 44 1007.3
20260508141826 13 206 0.0 16.1 0.00 0.00 0.00 44 1007.2
20260508141624 13 214 0.0 16.1 0.00 0.00 0.00 42 1007.3
20260508141546 13 213 0.0 22.5 0.00 0.00 0.00 43 1007.4
20260508141424 13 202 0.0 22.5 0.00 0.00 0.00 43 1007.3
20260508141225 13 240 0.0 22.5 0.00 0.00 0.00 43 1007.4
20260508141045 13 199 0.0 22.5 0.00 0.00 0.00 44 1007.4
20260508141023 13 245 0.0 22.5 0.00 0.00 0.00 43 1007.4
20260508140823 13 206 0.0 22.5 0.00 0.00 0.00 42 1007.4
20260508140616 13 209 0.0 22.5 0.00 0.00 0.00 43 1007.3
20260508140542 13 200 0.0 22.5 0.00 0.00 0.00 43 1007.3
20260508140417 13 197 0.0 22.5 0.00 0.00 0.00 43 1007.4
20260508140345 13 241 0.0 22.5 0.00 0.00 0.00 43 1007.3
20260508140339 13 241 0.0 22.5 0.00 0.00 0.00 42 1007.4
20260508140321 13 195 0.0 22.5 0.00 0.00 0.00 42 1007.3
20260508135850 13 221 0.0 19.3 0.00 0.00 0.00 42 1007.4
20260508135839 13 264 0.0 17.7 0.00 0.00 0.00 42 1007.4
20260508135809 13 221 0.0 19.3 0.00 0.00 0.00 43 1007.4
20260508135413 13 206 0.0 19.3 0.00 0.00 0.00 43 1007.4
20260508135214 13 203 0.0 19.3 0.00 0.00 0.00 43 1007.5
20260508135041 13 220 0.0 19.3 0.00 0.00 0.00 44 1007.4
20260508135013 13 235 0.0 19.3 0.00 0.00 0.00 44 1007.5
20260508134844 12 221 0.0 16.1 0.00 0.00 0.00 43 1007.5
20260508134831 12 258 0.0 19.3 0.00 0.00 0.00 42 1007.5
20260508134803 12 226 0.0 14.5 0.00 0.00 0.00 43 1007.5
20260508134506 12 193 0.0 17.7 0.00 0.00 0.00 43 1007.5
20260508134205 12 206 0.0 17.7 0.00 0.00 0.00 43 1007.5
20260508134038 12 257 0.0 17.7 0.00 0.00 0.00 44 1007.5
20260508134005 12 248 0.0 17.7 0.00 0.00 0.00 44 1007.5
20260508133839 12 210 0.0 17.7 0.00 0.00 0.00 45 1007.6
20260508133827 12 197 0.0 17.7 0.00 0.00 0.00 43 1007.5
20260508133758 12 183 0.0 17.7 0.00 0.00 0.00 45 1007.6
20260508133403 12 207 0.0 20.9 0.00 0.00 0.00 44 1007.6
20260508133203 12 214 0.0 20.9 0.00 0.00 0.00 44 1007.6
20260508133036 12 199 0.0 20.9 0.00 0.00 0.00 43 1007.6
20260508133005 12 217 0.0 20.9 0.00 0.00 0.00 43 1007.6
20260508132858 11 214 0.0 20.9 0.00 0.00 0.00 43 1007.6
20260508132838 11 214 0.0 20.9 0.00 0.00 0.00 43 1007.6
20260508132825 12 234 0.0 20.9 0.00 0.00 0.00 43 1007.6
20260508132405 11 259 0.0 20.9 0.00 0.00 0.00 44 1007.5
20260508132135 11 216 0.0 20.9 0.00 0.00 0.00 44 1007.6
20260508132034 11 203 0.0 20.9 0.00 0.00 0.00 44 1007.6
20260508131933 11 202 0.0 20.9 0.00 0.00 0.00 43 1007.5
20260508131836 11 233 0.0 20.9 0.00 0.00 0.00 44 1007.6
20260508131821 11 220 0.0 20.9 0.00 0.00 0.00 43 1007.6
20260508131745 11 233 0.0 20.9 0.00 0.00 0.00 44 1007.6
20260508131331 11 237 0.0 20.9 0.00 0.00 0.00 45 1007.6
20260508131131 11 248 0.0 20.9 0.00 0.00 0.00 43 1007.8
20260508131050 11 195 0.0 20.9 0.00 0.00 0.00 43 1007.6
20260508131031 11 200 0.0 20.9 0.00 0.00 0.00 43 1007.6
20260508130832 11 245 0.0 20.9 0.00 0.00 0.00 44 1007.6
20260508130820 11 195 0.0 20.9 0.00 0.00 0.00 44 1007.6
20260508130749 11 245 0.0 20.9 0.00 0.00 0.00 44 1007.6
20260508130332 11 219 0.0 20.9 0.00 0.00 0.00 44 1007.6
20260508130132 11 207 0.0 16.1 0.00 0.00 0.00 44 1007.8
20260508130034 11 216 0.0 14.5 0.00 0.00 0.00 46 1007.6
20260508125932 11 238 0.0 14.5 0.00 0.00 0.00 46 1007.6
20260508125805 11 234 0.0 19.3 0.00 0.00 0.00 45 1007.6
20260508125743 11 234 0.0 19.3 0.00 0.00 0.00 45 1007.6
20260508125327 11 217 0.0 19.3 0.00 0.00 0.00 44 1007.6
20260508125125 11 212 0.0 20.9 0.00 0.00 0.00 44 1007.6
20260508125035 11 247 0.0 20.9 0.00 0.00 0.00 45 1007.6
20260508124925 10 230 0.0 20.9 0.00 0.00 0.00 44 1007.8
20260508124724 10 245 0.0 20.9 0.00 0.00 0.00 45 1007.8
20260508124526 10 237 0.0 20.9 0.00 0.00 0.00 45 1007.8
20260508124324 10 227 0.0 20.9 0.00 0.00 0.00 45 1007.8
20260508124124 10 200 0.0 20.9 0.00 0.00 0.00 45 1007.6
20260508124040 10 185 0.0 20.9 0.00 0.00 0.00 45 1007.6
20260508124029 10 182 0.0 20.9 0.00 0.00 0.00 46 1007.8
20260508123724 10 183 0.0 20.9 0.00 0.00 0.00 45 1007.8
20260508123526 10 207 0.0 20.9 0.00 0.00 0.00 45 1007.8
20260508123324 10 202 0.0 20.9 0.00 0.00 0.00 45 1007.8
20260508123125 10 207 0.0 19.3 0.00 0.00 0.00 46 1007.8
20260508123035 10 223 0.0 19.3 0.00 0.00 0.00 46 1007.8
20260508122924 10 202 0.0 19.3 0.00 0.00 0.00 46 1007.8
20260508122725 10 199 0.0 19.3 0.00 0.00 0.00 49 1007.8
20260508122525 9 175 0.0 19.3 0.00 0.00 0.00 46 1007.6
20260508122424 9 204 0.0 17.7 0.00 0.00 0.00 46 1007.8
20260508122124 9 233 0.0 17.7 0.00 0.00 0.00 46 1007.8
20260508122033 9 220 0.0 17.7 0.00 0.00 0.00 46 1007.6
20260508121924 9 204 0.0 17.7 0.00 0.00 0.00 46 1007.6
20260508121724 9 228 0.0 17.7 0.00 0.00 0.00 46 1007.5
20260508121526 9 195 0.0 17.7 0.00 0.00 0.00 47 1007.6
20260508121324 9 195 0.0 17.7 0.00 0.00 0.00 47 1007.6
20260508121125 9 220 0.0 14.5 0.00 0.00 0.00 47 1007.6
20260508121032 9 228 0.0 14.5 0.00 0.00 0.00 47 1007.6
20260508120924 9 199 0.0 14.5 0.00 0.00 0.00 47 1007.6
20260508120724 8 226 0.0 16.1 0.00 0.00 0.00 47 1007.6
20260508120526 8 206 0.0 16.1 0.00 0.00 0.00 47 1007.6
20260508120326 8 209 0.0 16.1 0.00 0.00 0.00 46 1007.5
20260508120147 8 226 0.0 16.1 0.00 0.00 0.00 46 1007.5
20260508120135 8 190 0.0 11.3 0.00 0.00 0.00 46 1007.5
20260508120130 8 234 0.0 16.1 0.00 0.00 0.00 47 1007.6
20260508120109 8 234 0.0 16.1 0.00 0.00 0.00 47 1007.6
20260508115809 8 234 0.0 11.3 0.00 0.00 0.00 47 1007.5
20260508115738 8 190 0.0 11.3 0.00 0.00 0.00 46 1007.5
20260508115325 8 207 0.0 11.3 0.00 0.00 0.00 47 1007.5
20260508115126 8 203 0.0 17.7 0.00 0.00 0.00 47 1007.5
20260508115031 8 210 0.0 17.7 0.00 0.00 0.00 47 1007.6
20260508114924 8 202 0.0 17.7 0.00 0.00 0.00 46 1007.5
20260508114825 8 223 0.0 17.7 0.00 0.00 0.00 47 1007.5
20260508114810 8 209 0.0 17.7 0.00 0.00 0.00 47 1007.5
20260508114740 8 223 0.0 17.7 0.00 0.00 0.00 47 1007.5
20260508114429 8 183 0.0 17.7 0.00 0.00 0.00 47 1007.5
20260508114125 8 197 0.0 11.3 0.00 0.00 0.00 47 1007.5
20260508114031 8 212 0.0 11.3 0.00 0.00 0.00 47 1007.5
20260508113924 8 206 0.0 11.3 0.00 0.00 0.00 47 1007.6
20260508113827 8 183 0.0 11.3 0.00 0.00 0.00 47 1007.5
20260508113810 8 190 0.0 11.3 0.00 0.00 0.00 48 1007.6
20260508113738 8 183 0.0 11.3 0.00 0.00 0.00 47 1007.5
20260508113324 8 200 0.0 11.3 0.00 0.00 0.00 47 1007.5
20260508113125 8 196 0.0 11.3 0.00 0.00 0.00 47 1007.6
20260508113031 8 161 0.0 11.3 0.00 0.00 0.00 48 1007.5
20260508112924 8 212 0.0 11.3 0.00 0.00 0.00 47 1007.6
20260508112824 8 200 0.0 14.5 0.00 0.00 0.00 48 1007.6
20260508112809 8 217 0.0 11.3 0.00 0.00 0.00 47 1007.6
20260508112738 8 200 0.0 14.5 0.00 0.00 0.00 48 1007.6
20260508112326 8 203 0.0 16.1 0.00 0.00 0.00 48 1007.6
20260508112125 8 203 0.0 16.1 0.00 0.00 0.00 48 1007.6
20260508112027 8 195 0.0 16.1 0.00 0.00 0.00 48 1007.6
20260508111924 8 190 0.0 16.1 0.00 0.00 0.00 48 1007.6
20260508111825 7 188 0.0 16.1 0.00 0.00 0.00 48 1007.6
20260508111527 7 204 0.0 16.1 0.00 0.00 0.00 49 1007.5
20260508111325 7 219 0.0 11.3 0.00 0.00 0.00 49 1007.6
20260508111124 7 226 0.0 11.3 0.00 0.00 0.00 49 1007.5
20260508111033 7 235 0.0 11.3 0.00 0.00 0.00 49 1007.5
20260508110924 7 220 0.0 11.3 0.00 0.00 0.00 50 1007.6
20260508110726 7 197 0.0 11.3 0.00 0.00 0.00 50 1007.6
20260508110525 7 193 0.0 11.3 0.00 0.00 0.00 50 1007.6
20260508110325 7 200 0.0 9.7 0.00 0.00 0.00 50 1007.6
20260508110225 7 204 0.0 9.7 0.00 0.00 0.00 50 1007.6
20260508110025 7 175 0.0 9.7 0.00 0.00 0.00 50 1007.5
20260508105924 7 186 0.0 9.7 0.00 0.00 0.00 50 1007.6
20260508105724 7 200 0.0 9.7 0.00 0.00 0.00 51 1007.6
20260508105527 7 199 0.0 9.7 0.00 0.00 0.00 51 1007.5
20260508105324 7 200 0.0 6.4 0.00 0.00 0.00 51 1007.5
20260508105124 7 195 0.0 6.4 0.00 0.00 0.00 51 1007.5
20260508105015 7 204 0.0 6.4 0.00 0.00 0.00 51 1007.6
20260508104926 6 212 0.0 6.4 0.00 0.00 0.00 52 1007.6
20260508104725 6 199 0.0 6.4 0.00 0.00 0.00 52 1007.6
20260508104525 6 204 0.0 6.4 0.00 0.00 0.00 52 1007.6
20260508104510 6 204 0.0 6.4 0.00 0.00 0.00 52 1007.5
20260508104324 6 206 0.0 8.0 0.00 0.00 0.00 52 1007.6
20260508104124 6 206 0.0 8.0 0.00 0.00 0.00 52 1007.6
20260508104031 6 206 0.0 8.0 0.00 0.00 0.00 52 1007.8
20260508104012 6 206 0.0 8.0 0.00 0.00 0.00 52 1007.8
20260508103724 6 206 0.0 8.0 0.00 0.00 0.00 53 1007.6
20260508103525 6 206 0.0 8.0 0.00 0.00 0.00 53 1007.6
20260508103509 6 206 0.0 8.0 0.00 0.00 0.00 53 1007.5
20260508103325 6 192 0.0 3.2 0.00 0.00 0.00 53 1007.6
20260508103301 6 192 0.0 3.2 0.00 0.00 0.00 53 1007.6
20260508103238 6 192 0.0 3.2 0.00 0.00 0.00 53 1007.6
20260508102925 6 192 0.0 3.2 0.00 0.00 0.00 53 1007.6
20260508102725 6 192 0.0 3.2 0.00 0.00 0.00 53 1007.8
20260508102504 6 192 0.0 3.2 0.00 0.00 0.00 53 1007.6
20260508102425 6 190 0.0 3.2 0.00 0.00 0.00 53 1007.6
20260508102306 6 190 0.0 1.6 0.00 0.00 0.00 53 1007.8
20260508102241 6 190 0.0 1.6 0.00 0.00 0.00 54 1007.6
20260508101925 6 190 0.0 1.6 0.00 0.00 0.00 53 1007.8
20260508101724 6 190 0.0 1.6 0.00 0.00 0.00 53 1007.8
20260508101525 6 190 0.0 3.2 0.00 0.00 0.00 53 1007.6
20260508101503 6 190 0.0 3.2 0.00 0.00 0.00 53 1007.8
20260508101325 6 190 0.0 3.2 0.00 0.00 0.00 54 1007.8
20260508101303 6 190 0.0 3.2 0.00 0.00 0.00 54 1007.9
20260508101237 6 190 0.0 3.2 0.00 0.00 0.00 54 1007.8
20260508100922 6 190 0.0 3.2 0.00 0.00 0.00 53 1007.9
20260508100721 6 190 0.0 3.2 0.00 0.00 0.00 53 1007.8
20260508100502 6 190 0.0 3.2 0.00 0.00 0.00 53 1007.8
20260508100320 6 190 0.0 3.2 0.00 0.00 0.00 53 1007.9
20260508100122 6 190 0.0 3.2 0.00 0.00 0.00 53 1007.9
20260508100006 6 190 0.0 3.2 0.00 0.00 0.00 53 1007.6
20260508095923 6 190 0.0 3.2 0.00 0.00 0.00 53 1007.6
20260508095809 6 190 0.0 1.6 0.00 0.00 0.00 53 1007.9
20260508095506 6 190 0.0 1.6 0.00 0.00 0.00 53 1007.8
20260508095431 6 190 0.0 1.6 0.00 0.00 0.00 53 1007.8
20260508095307 6 190 0.0 1.6 0.00 0.00 0.00 53 1007.8
20260508095110 6 190 0.0 1.6 0.00 0.00 0.00 53 1007.8
20260508094935 6 190 0.0 1.6 0.00 0.00 0.00 53 1007.8
20260508094910 6 190 0.0 1.6 0.00 0.00 0.00 53 1007.9
20260508094711 6 190 0.0 1.6 0.00 0.00 0.00 53 1007.9
20260508094509 6 190 0.0 1.6 0.00 0.00 0.00 52 1007.9
20260508094436 6 190 0.0 1.6 0.00 0.00 0.00 53 1007.9
20260508094308 6 190 0.0 1.6 0.00 0.00 0.00 52 1007.9
20260508094204 6 190 0.0 1.6 0.00 0.00 0.00 52 1007.9
20260508093909 6 190 0.0 1.6 0.00 0.00 0.00 52 1007.9
20260508093709 6 190 0.0 3.2 0.00 0.00 0.00 52 1007.9
20260508093509 6 190 0.0 3.2 0.00 0.00 0.00 52 1007.9
20260508093437 6 190 0.0 3.2 0.00 0.00 0.00 52 1007.9
20260508093306 6 190 0.0 3.2 0.00 0.00 0.00 52 1007.9
20260508093107 6 190 0.0 3.2 0.00 0.00 0.00 52 1007.9
20260508092934 6 190 0.0 4.8 0.00 0.00 0.00 52 1007.9
20260508092905 6 190 0.0 4.8 0.00 0.00 0.00 52 1007.9
20260508092702 6 190 0.0 4.8 0.00 0.00 0.00 52 1008.0
20260508092435 6 190 0.0 6.4 0.00 0.00 0.00 52 1008.0
20260508092301 6 190 0.0 6.4 0.00 0.00 0.00 51 1007.9
20260508092102 7 190 0.0 6.4 0.00 0.00 0.00 51 1007.9
20260508091929 7 190 0.0 6.4 0.00 0.00 0.00 52 1007.9
20260508091901 7 190 0.0 6.4 0.00 0.00 0.00 52 1007.9
20260508091801 7 190 0.0 6.4 0.00 0.00 0.00 52 1007.9
20260508091427 7 193 0.0 4.8 0.00 0.00 0.00 52 1007.9
20260508091258 7 193 0.0 4.8 0.00 0.00 0.00 52 1007.9
20260508091056 7 193 0.0 6.4 0.00 0.00 0.00 51 1007.9
20260508090925 7 193 0.0 6.4 0.00 0.00 0.00 51 1007.9
20260508090856 7 193 0.0 6.4 0.00 0.00 0.00 51 1008.0
20260508090700 7 197 0.0 6.4 0.00 0.00 0.00 51 1007.9
20260508090455 7 197 0.0 6.4 0.00 0.00 0.00 51 1008.0
20260508090422 7 197 0.0 6.4 0.00 0.00 0.00 51 1008.0
20260508090255 7 196 0.0 6.4 0.00 0.00 0.00 51 1008.0
20260508090156 7 197 0.0 9.7 0.00 0.00 0.00 51 1008.0
20260508085919 7 197 0.0 9.7 0.00 0.00 0.00 51 1008.0
20260508085850 7 199 0.0 9.7 0.00 0.00 0.00 51 1008.0
20260508085648 7 197 0.0 9.7 0.00 0.00 0.00 51 1008.0
20260508085449 7 186 0.0 9.7 0.00 0.00 0.00 51 1008.0
20260508085417 7 186 0.0 9.7 0.00 0.00 0.00 51 1008.0
20260508085247 7 183 0.0 9.7 0.00 0.00 0.00 51 1008.0
20260508085050 7 166 0.0 6.4 0.00 0.00 0.00 51 1008.0
20260508084914 7 182 0.0 6.4 0.00 0.00 0.00 52 1007.9
20260508084850 7 210 0.0 6.4 0.00 0.00 0.00 52 1007.9
20260508084647 7 209 0.0 6.4 0.00 0.00 0.00 52 1008.0
20260508084447 7 207 0.0 6.4 0.00 0.00 0.00 52 1007.9
20260508084411 7 216 0.0 6.4 0.00 0.00 0.00 52 1008.0
20260508084343 7 203 0.0 6.4 0.00 0.00 0.00 52 1008.0
20260508084044 6 203 0.0 6.4 0.00 0.00 0.00 52 1007.9
20260508083908 6 202 0.0 6.4 0.00 0.00 0.00 52 1008.0
20260508083846 6 202 0.0 6.4 0.00 0.00 0.00 52 1008.0
20260508083644 6 202 0.0 6.4 0.00 0.00 0.00 52 1007.9
20260508083443 6 200 0.0 6.4 0.00 0.00 0.00 52 1008.0
20260508083409 6 203 0.0 4.8 0.00 0.00 0.00 52 1008.0
20260508083241 6 203 0.0 4.8 0.00 0.00 0.00 52 1008.0
20260508083210 6 203 0.0 4.8 0.00 0.00 0.00 53 1007.9
20260508083147 6 203 0.0 4.8 0.00 0.00 0.00 52 1008.0
20260508082841 6 203 0.0 4.8 0.00 0.00 0.00 53 1007.9
20260508082734 6 216 0.0 3.2 0.00 0.00 0.00 53 1008.1
20260508082439 6 219 0.0 3.2 0.00 0.00 0.00 53 1008.1
20260508082407 6 179 0.0 3.2 0.00 0.00 0.00 53 1008.0
20260508082238 6 178 0.0 4.8 0.00 0.00 0.00 53 1008.0
20260508082207 6 175 0.0 4.8 0.00 0.00 0.00 54 1008.1
20260508082141 6 178 0.0 4.8 0.00 0.00 0.00 53 1008.0
20260508081837 6 175 0.0 4.8 0.00 0.00 0.00 53 1008.1
20260508081638 6 172 0.0 4.8 0.00 0.00 0.00 54 1008.1
20260508081437 6 173 0.0 4.8 0.00 0.00 0.00 54 1008.0
20260508081405 6 173 0.0 4.8 0.00 0.00 0.00 54 1008.2
20260508081241 6 186 0.0 3.2 0.00 0.00 0.00 55 1008.0
20260508081235 6 172 0.0 4.8 0.00 0.00 0.00 54 1008.1
20260508081203 6 192 0.0 3.2 0.00 0.00 0.00 55 1008.1
20260508080837 6 190 0.0 3.2 0.00 0.00 0.00 55 1008.1
20260508080635 6 190 0.0 3.2 0.00 0.00 0.00 55 1008.1
20260508080436 6 190 0.0 3.2 0.00 0.00 0.00 55 1008.1
20260508080404 6 190 0.0 3.2 0.00 0.00 0.00 55 1008.2
20260508080333 6 190 0.0 3.2 0.00 0.00 0.00 55 1008.2
20260508080203 6 190 0.0 3.2 0.00 0.00 0.00 55 1008.2
20260508080138 6 190 0.0 3.2 0.00 0.00 0.00 55 1008.2
20260508075830 6 190 0.0 3.2 0.00 0.00 0.00 55 1008.2
20260508075632 6 190 0.0 3.2 0.00 0.00 0.00 55 1008.2
20260508075402 6 190 0.0 3.2 0.00 0.00 0.00 55 1008.2
20260508075223 6 190 0.0 3.2 0.00 0.00 0.00 55 1008.2
20260508075201 6 190 0.0 3.2 0.00 0.00 0.00 55 1008.3
20260508075137 6 190 0.0 3.2 0.00 0.00 0.00 55 1008.2
20260508074823 6 190 0.0 3.2 0.00 0.00 0.00 56 1008.3
20260508074730 6 189 0.0 1.6 0.00 0.00 0.00 56 1008.2
20260508074404 6 189 0.0 3.2 0.00 0.00 0.00 55 1008.3
20260508074209 6 189 0.0 3.2 0.00 0.00 0.00 55 1008.3
20260508074158 6 189 0.0 3.2 0.00 0.00 0.00 55 1008.2
20260508074134 6 189 0.0 3.2 0.00 0.00 0.00 56 1008.3
20260508073808 6 189 0.0 3.2 0.00 0.00 0.00 55 1008.3
20260508073607 6 189 0.0 3.2 0.00 0.00 0.00 55 1008.4
20260508073401 6 189 0.0 3.2 0.00 0.00 0.00 55 1008.3
20260508073232 6 189 0.0 3.2 0.00 0.00 0.00 55 1008.3
20260508073207 6 189 0.0 3.2 0.00 0.00 0.00 55 1008.4
20260508073157 6 189 0.0 3.2 0.00 0.00 0.00 55 1008.4
20260508072806 6 189 0.0 3.2 0.00 0.00 0.00 55 1008.3
20260508072609 6 189 0.0 3.2 0.00 0.00 0.00 55 1008.4
20260508072400 6 189 0.0 3.2 0.00 0.00 0.00 55 1008.4
20260508072232 6 189 0.0 3.2 0.00 0.00 0.00 55 1008.5
20260508072206 6 189 0.0 3.2 0.00 0.00 0.00 55 1008.4
20260508072145 6 189 0.0 3.2 0.00 0.00 0.00 55 1008.4
20260508071804 6 189 0.0 3.2 0.00 0.00 0.00 55 1008.4
20260508071542 6 189 0.0 3.2 0.00 0.00 0.00 55 1008.4
20260508071342 6 189 0.0 4.8 0.00 0.00 0.00 55 1008.4
20260508071141 6 189 0.0 4.8 0.00 0.00 0.00 55 1008.5
20260508070942 6 188 0.0 4.8 0.00 0.00 0.00 55 1008.5
20260508070835 6 188 0.0 4.8 0.00 0.00 0.00 55 1008.5
20260508070740 6 186 0.0 4.8 0.00 0.00 0.00 56 1008.5
20260508070541 6 186 0.0 4.8 0.00 0.00 0.00 56 1008.5
20260508070442 6 186 0.0 3.2 0.00 0.00 0.00 56 1008.5
20260508070334 6 186 0.0 3.2 0.00 0.00 0.00 56 1008.5
20260508070140 6 185 0.0 3.2 0.00 0.00 0.00 56 1008.5
20260508065940 6 185 0.0 3.2 0.00 0.00 0.00 56 1008.5
20260508065834 6 185 0.0 3.2 0.00 0.00 0.00 56 1008.5
20260508065738 6 185 0.0 3.2 0.00 0.00 0.00 56 1008.6
20260508065543 6 183 0.0 3.2 0.00 0.00 0.00 56 1008.6
20260508065335 6 183 0.0 3.2 0.00 0.00 0.00 57 1008.5
20260508065136 6 186 0.0 3.2 0.00 0.00 0.00 57 1008.6
20260508064934 6 186 0.0 3.2 0.00 0.00 0.00 57 1008.6
20260508064845 6 186 0.0 3.2 0.00 0.00 0.00 56 1008.6
20260508064835 6 186 0.0 3.2 0.00 0.00 0.00 57 1008.6
20260508064537 6 186 0.0 3.2 0.00 0.00 0.00 56 1008.6
20260508064333 6 186 0.0 3.2 0.00 0.00 0.00 57 1008.6
20260508064234 6 186 0.0 3.2 0.00 0.00 0.00 57 1008.6
20260508063932 6 186 0.0 3.2 0.00 0.00 0.00 57 1008.7
20260508063832 6 186 0.0 3.2 0.00 0.00 0.00 57 1008.7
20260508063732 6 186 0.0 3.2 0.00 0.00 0.00 57 1008.6
20260508063636 6 186 0.0 1.6 0.00 0.00 0.00 57 1008.7
20260508063620 6 186 0.0 1.6 0.00 0.00 0.00 57 1008.8
20260508063548 6 186 0.0 1.6 0.00 0.00 0.00 57 1008.7
20260508063108 6 186 0.0 1.6 0.00 0.00 0.00 57 1008.7
20260508062908 6 186 0.0 1.6 0.00 0.00 0.00 56 1008.7
20260508062812 6 186 0.0 1.6 0.00 0.00 0.00 56 1008.8
20260508062713 6 186 0.0 1.6 0.00 0.00 0.00 56 1008.7
20260508062708 6 186 0.0 1.6 0.00 0.00 0.00 56 1008.7
20260508062622 6 186 0.0 1.6 0.00 0.00 0.00 56 1008.8
20260508062309 6 186 0.0 1.6 0.00 0.00 0.00 56 1008.8
20260508062107 6 186 0.0 3.2 0.00 0.00 0.00 56 1008.8
20260508061908 6 186 0.0 4.8 0.00 0.00 0.00 56 1008.8
20260508061810 6 186 0.0 4.8 0.00 0.00 0.00 57 1008.8
20260508061708 6 186 0.0 4.8 0.00 0.00 0.00 57 1008.8
20260508061613 6 186 0.0 4.8 0.00 0.00 0.00 58 1008.9
20260508061553 6 186 0.0 4.8 0.00 0.00 0.00 57 1008.8
20260508061309 6 186 0.0 4.8 0.00 0.00 0.00 58 1008.9
20260508061105 6 186 0.0 4.8 0.00 0.00 0.00 58 1008.9
20260508061004 6 185 0.0 1.6 0.00 0.00 0.00 57 1008.9
20260508060811 6 185 0.0 1.6 0.00 0.00 0.00 57 1008.9
20260508060705 6 185 0.0 1.6 0.00 0.00 0.00 57 1008.9
20260508060612 6 185 0.0 1.6 0.00 0.00 0.00 57 1008.8
20260508060550 6 185 0.0 1.6 0.00 0.00 0.00 57 1008.8
20260508060303 6 185 0.0 1.6 0.00 0.00 0.00 57 1008.9
20260508060209 6 185 0.0 1.6 0.00 0.00 0.00 56 1008.9
20260508055904 6 185 0.0 1.6 0.00 0.00 0.00 57 1008.9
20260508055807 6 185 0.0 1.6 0.00 0.00 0.00 57 1008.9
20260508055704 6 185 0.0 1.6 0.00 0.00 0.00 57 1008.9
20260508055509 6 185 0.0 3.2 0.00 0.00 0.00 57 1008.9
20260508055306 6 185 0.0 3.2 0.00 0.00 0.00 57 1009.0
20260508055253 6 185 0.0 3.2 0.00 0.00 0.00 57 1009.0
20260508055056 6 185 0.0 3.2 0.00 0.00 0.00 57 1008.9
20260508054853 6 185 0.0 3.2 0.00 0.00 0.00 57 1008.9
20260508054805 6 185 0.0 3.2 0.00 0.00 0.00 58 1008.9
20260508054652 6 185 0.0 3.2 0.00 0.00 0.00 58 1008.9
20260508054549 6 185 0.0 4.8 0.00 0.00 0.00 58 1009.0
20260508054305 6 185 0.0 4.8 0.00 0.00 0.00 58 1009.0
20260508054252 6 185 0.0 4.8 0.00 0.00 0.00 58 1009.0
20260508054049 6 185 0.0 4.8 0.00 0.00 0.00 58 1009.0
20260508053848 6 185 0.0 4.8 0.00 0.00 0.00 58 1009.1
20260508053805 6 185 0.0 4.8 0.00 0.00 0.00 58 1009.1
20260508053647 6 185 0.0 4.8 0.00 0.00 0.00 58 1009.0
20260508053447 6 185 0.0 4.8 0.00 0.00 0.00 58 1009.1
20260508053306 6 185 0.0 4.8 0.00 0.00 0.00 59 1009.0
20260508053249 6 172 0.0 3.2 0.00 0.00 0.00 59 1009.1
20260508053044 6 123 0.0 3.2 0.00 0.00 0.00 59 1009.1
20260508052944 6 123 0.0 3.2 0.00 0.00 0.00 60 1009.0
20260508052807 6 123 0.0 3.2 0.00 0.00 0.00 60 1009.0
20260508052645 6 123 0.0 3.2 0.00 0.00 0.00 61 1009.1
20260508052442 6 123 0.0 1.6 0.00 0.00 0.00 61 1009.1
20260508052343 6 123 0.0 1.6 0.00 0.00 0.00 62 1009.2
20260508052309 6 123 0.0 1.6 0.00 0.00 0.00 61 1009.1
20260508052040 6 123 0.0 3.2 0.00 0.00 0.00 63 1009.1
20260508051839 6 123 0.0 3.2 0.00 0.00 0.00 64 1009.0
20260508051808 6 123 0.0 3.2 0.00 0.00 0.00 64 1009.0
20260508051640 6 123 0.0 3.2 0.00 0.00 0.00 64 1009.1
20260508051438 6 123 0.0 3.2 0.00 0.00 0.00 65 1009.1
20260508051308 5 123 0.0 3.2 0.00 0.00 0.00 66 1008.9
20260508051237 5 123 0.0 3.2 0.00 0.00 0.00 66 1009.1
20260508051117 5 123 0.0 1.6 0.00 0.00 0.00 67 1009.0
20260508051103 5 123 0.0 1.6 0.00 0.00 0.00 67 1009.1
20260508051030 5 123 0.0 1.6 0.00 0.00 0.00 67 1009.0
20260508050737 5 123 0.0 1.6 0.00 0.00 0.00 67 1009.1
20260508050441 5 123 0.0 1.6 0.00 0.00 0.00 67 1009.1
20260508050307 5 123 0.0 0.0 0.00 0.00 0.00 68 1009.2
20260508050230 5 123 0.0 0.0 0.00 0.00 0.00 69 1009.2
20260508050033 5 123 0.0 0.0 0.00 0.00 0.00 73 1009.2
20260508045807 5 123 0.0 0.0 0.00 0.00 0.00 73 1009.2
20260508045632 5 123 0.0 0.0 0.00 0.00 0.00 73 1009.1
20260508045423 5 123 0.0 0.0 0.00 0.00 0.00 72 1009.2
20260508045307 5 123 0.0 0.0 0.00 0.00 0.00 72 1009.2
20260508045224 5 123 0.0 0.0 0.00 0.00 0.00 72 1009.2
20260508045122 5 123 0.0 0.0 0.00 0.00 0.00 72 1009.2
20260508044808 5 123 0.0 0.0 0.00 0.00 0.00 72 1009.2
20260508044622 5 123 0.0 0.0 0.00 0.00 0.00 72 1009.3
20260508044418 5 123 0.0 0.0 0.00 0.00 0.00 72 1009.3
20260508044307 5 123 0.0 0.0 0.00 0.00 0.00 73 1009.2
20260508044218 5 123 0.0 0.0 0.00 0.00 0.00 73 1009.3
20260508044017 5 123 0.0 0.0 0.00 0.00 0.00 73 1009.3
20260508043807 5 123 0.0 0.0 0.00 0.00 0.00 72 1009.2
20260508043616 5 123 0.0 0.0 0.00 0.00 0.00 72 1009.3
20260508043417 5 123 0.0 0.0 0.00 0.00 0.00 71 1009.2
20260508043306 5 123 0.0 0.0 0.00 0.00 0.00 70 1009.3
20260508043216 5 123 0.0 0.0 0.00 0.00 0.00 70 1009.3
20260508043114 5 123 0.0 0.0 0.00 0.00 0.00 69 1009.3
20260508042806 5 123 0.0 0.0 0.00 0.00 0.00 69 1009.3
20260508042618 5 123 0.0 0.0 0.00 0.00 0.00 69 1009.3
20260508042413 5 123 0.0 0.0 0.00 0.00 0.00 69 1009.3
20260508042308 5 123 0.0 0.0 0.00 0.00 0.00 70 1009.4
20260508042208 5 123 0.0 0.0 0.00 0.00 0.00 70 1009.4
20260508042009 5 123 0.0 0.0 0.00 0.00 0.00 70 1009.4
20260508041809 5 123 0.0 0.0 0.00 0.00 0.00 70 1009.4
20260508041609 5 123 0.0 0.0 0.00 0.00 0.00 70 1009.4
20260508041509 5 123 0.0 0.0 0.00 0.00 0.00 69 1009.5
20260508041307 5 123 0.0 0.0 0.00 0.00 0.00 69 1009.5
20260508041210 5 123 0.0 0.0 0.00 0.00 0.00 69 1009.4
20260508041010 5 123 0.0 0.0 0.00 0.00 0.00 68 1009.5
20260508040810 5 123 0.0 0.0 0.00 0.00 0.00 67 1009.4
20260508040609 5 123 0.0 0.0 0.00 0.00 0.00 67 1009.4
20260508040414 5 123 0.0 0.0 0.00 0.00 0.00 66 1009.4
20260508040305 5 123 0.0 0.0 0.00 0.00 0.00 67 1009.5
20260508040210 5 123 0.0 0.0 0.00 0.00 0.00 67 1009.5
20260508040010 5 123 0.0 0.0 0.00 0.00 0.00 67 1009.4
20260508035803 5 123 0.0 0.0 0.00 0.00 0.00 66 1009.5
20260508035622 5 123 0.0 0.0 0.00 0.00 0.00 66 1009.5
20260508035412 5 123 0.0 0.0 0.00 0.00 0.00 66 1009.5
20260508035316 5 123 0.0 0.0 0.00 0.00 0.00 66 1009.5
20260508035306 5 123 0.0 0.0 0.00 0.00 0.00 66 1009.5
20260508035009 5 123 0.0 0.0 0.00 0.00 0.00 66 1009.6
20260508034802 5 123 0.0 0.0 0.00 0.00 0.00 66 1009.6
20260508034609 5 123 0.0 0.0 0.00 0.00 0.00 64 1009.4
20260508034600 5 123 0.0 0.0 0.00 0.00 0.00 64 1009.6
20260508034539 5 123 0.0 0.0 0.00 0.00 0.00 64 1009.5
20260508034210 5 123 0.0 0.0 0.00 0.00 0.00 64 1009.6
20260508034009 5 123 0.0 0.0 0.00 0.00 0.00 65 1009.5
20260508033802 5 123 0.0 0.0 0.00 0.00 0.00 65 1009.6
20260508033712 5 123 0.0 0.0 0.00 0.00 0.00 63 1009.5
20260508033602 5 123 0.0 0.0 0.00 0.00 0.00 63 1009.5
20260508033538 5 123 0.0 0.0 0.00 0.00 0.00 63 1009.6
20260508033209 5 123 0.0 0.0 0.00 0.00 0.00 63 1009.5
20260508033009 5 123 0.0 0.0 0.00 0.00 0.00 63 1009.6
20260508032802 6 123 0.0 0.0 0.00 0.00 0.00 64 1009.6
20260508032612 6 123 0.0 0.0 0.00 0.00 0.00 64 1009.6
20260508032602 6 123 0.0 0.0 0.00 0.00 0.00 63 1009.7
20260508032540 6 123 0.0 0.0 0.00 0.00 0.00 63 1009.6
20260508032209 6 123 0.0 0.0 0.00 0.00 0.00 63 1009.7
20260508032009 6 123 0.0 0.0 0.00 0.00 0.00 63 1009.6
20260508031801 6 123 0.0 0.0 0.00 0.00 0.00 63 1009.6
20260508031609 6 123 0.0 0.0 0.00 0.00 0.00 62 1009.6
20260508031411 6 123 0.0 0.0 0.00 0.00 0.00 62 1009.6
20260508031301 6 123 0.0 0.0 0.00 0.00 0.00 62 1009.6
20260508031210 6 123 0.0 0.0 0.00 0.00 0.00 62 1009.6
20260508031111 6 123 0.0 0.0 0.00 0.00 0.00 62 1009.6
20260508030801 6 123 0.0 0.0 0.00 0.00 0.00 62 1009.6
20260508030609 6 123 0.0 0.0 0.00 0.00 0.00 61 1009.6
20260508030410 6 123 0.0 0.0 0.00 0.00 0.00 61 1009.6
20260508030302 6 123 0.0 0.0 0.00 0.00 0.00 60 1009.8
20260508030209 6 123 0.0 0.0 0.00 0.00 0.00 60 1009.8
20260508030133 6 123 0.0 0.0 0.00 0.00 0.00 60 1009.7
20260508030115 6 123 0.0 0.0 0.00 0.00 0.00 60 1009.7
20260508030027 6 123 0.0 0.0 0.00 0.00 0.00 60 1009.7
20260508025609 6 123 0.0 0.0 0.00 0.00 0.00 59 1009.7
20260508025508 7 123 0.0 0.0 0.00 0.00 0.00 59 1009.7
20260508025301 7 123 0.0 0.0 0.00 0.00 0.00 59 1009.7
20260508025210 7 123 0.0 0.0 0.00 0.00 0.00 58 1009.7
20260508025118 7 123 0.0 0.0 0.00 0.00 0.00 57 1009.7
20260508025059 7 123 0.0 0.0 0.00 0.00 0.00 58 1009.7
20260508025028 7 123 0.0 0.0 0.00 0.00 0.00 57 1009.7
20260508024609 7 123 0.0 0.0 0.00 0.00 0.00 57 1009.7
20260508024410 7 123 0.0 0.0 0.00 0.00 0.00 57 1009.6
20260508024302 7 123 0.0 0.0 0.00 0.00 0.00 56 1009.6
20260508024209 7 123 0.0 0.0 0.00 0.00 0.00 56 1009.6
20260508024201 7 123 0.0 0.0 0.00 0.00 0.00 55 1009.6
20260508024120 7 123 0.0 0.0 0.00 0.00 0.00 55 1009.6
20260508024031 7 123 0.0 0.0 0.00 0.00 0.00 55 1009.6
20260508023609 7 123 0.0 0.0 0.00 0.00 0.00 55 1009.6
20260508023409 7 123 0.0 0.0 0.00 0.00 0.00 54 1009.7
20260508023258 8 123 0.0 0.0 0.00 0.00 0.00 53 1009.6
20260508023209 8 123 0.0 0.0 0.00 0.00 0.00 53 1009.6
20260508023009 8 123 0.0 0.0 0.00 0.00 0.00 53 1009.6
20260508022809 8 123 0.0 0.0 0.00 0.00 0.00 53 1009.5
20260508022754 8 123 0.0 0.0 0.00 0.00 0.00 53 1009.6
20260508022610 8 123 0.0 0.0 0.00 0.00 0.00 52 1009.6
20260508022513 8 123 0.0 0.0 0.00 0.00 0.00 51 1009.5
20260508022255 8 123 0.0 0.0 0.00 0.00 0.00 51 1009.5
20260508022209 8 123 0.0 0.0 0.00 0.00 0.00 51 1009.5
20260508022010 8 123 0.0 0.0 0.00 0.00 0.00 51 1009.6
20260508021811 8 123 0.0 0.0 0.00 0.00 0.00 50 1009.5
20260508021752 8 123 0.0 0.0 0.00 0.00 0.00 50 1009.5
20260508021610 8 123 0.0 0.0 0.00 0.00 0.00 51 1009.5
20260508021409 8 123 0.0 0.0 0.00 0.00 0.00 50 1009.4
20260508021252 8 123 0.0 0.0 0.00 0.00 0.00 50 1009.4
20260508021210 8 123 0.0 0.0 0.00 0.00 0.00 49 1009.4
20260508021009 8 123 0.0 0.0 0.00 0.00 0.00 49 1009.4
20260508020919 9 123 0.0 0.0 0.00 0.00 0.00 49 1009.4
20260508020753 8 123 0.0 0.0 0.00 0.00 0.00 49 1009.3
20260508020610 9 123 0.0 0.0 0.00 0.00 0.00 49 1009.3
20260508020410 9 123 0.0 0.0 0.00 0.00 0.00 48 1009.3
20260508020250 9 123 0.0 0.0 0.00 0.00 0.00 48 1009.2
20260508020209 9 123 0.0 0.0 0.00 0.00 0.00 48 1009.3
20260508020111 9 123 0.0 0.0 0.00 0.00 0.00 48 1009.3
20260508015806 9 123 0.0 0.0 0.00 0.00 0.00 48 1009.3
20260508015751 9 123 0.0 0.0 0.00 0.00 0.00 48 1009.3
20260508015602 9 123 0.0 0.0 0.00 0.00 0.00 48 1009.2
20260508015402 10 123 0.0 0.0 0.00 0.00 0.00 48 1009.2
20260508015255 10 123 0.0 0.0 0.00 0.00 0.00 48 1009.2
20260508015202 10 123 0.0 0.0 0.00 0.00 0.00 47 1009.2
20260508015112 10 123 0.0 0.0 0.00 0.00 0.00 46 1009.1
20260508015051 10 123 0.0 0.0 0.00 0.00 0.00 47 1009.2
20260508015011 10 123 0.0 0.0 0.00 0.00 0.00 46 1009.1
20260508014602 10 123 0.0 0.0 0.00 0.00 0.00 46 1009.2
20260508014503 10 123 0.0 0.0 0.00 0.00 0.00 46 1009.1
20260508014252 10 123 0.0 0.0 0.00 0.00 0.00 46 1009.2
20260508014202 10 123 0.0 0.0 0.00 0.00 0.00 47 1009.0
20260508014051 10 123 0.0 1.6 0.00 0.00 0.00 46 1009.0
20260508014037 10 123 0.0 1.6 0.00 0.00 0.00 46 1009.0
20260508014004 10 123 0.0 1.6 0.00 0.00 0.00 46 1009.0
20260508013603 11 123 0.0 1.6 0.00 0.00 0.00 46 1009.0
20260508013402 11 123 0.0 1.6 0.00 0.00 0.00 45 1009.0
20260508013245 11 123 0.0 1.6 0.00 0.00 0.00 45 1009.0
20260508013202 11 123 0.0 1.6 0.00 0.00 0.00 45 1009.0
20260508013057 11 123 0.0 1.6 0.00 0.00 0.00 45 1009.0
20260508013045 11 123 0.0 1.6 0.00 0.00 0.00 44 1009.0
20260508013029 11 123 0.0 1.6 0.00 0.00 0.00 45 1009.0
20260508012602 11 123 0.0 0.0 0.00 0.00 0.00 43 1009.0
20260508012404 12 123 0.0 1.6 0.00 0.00 0.00 45 1009.1
20260508012242 12 123 0.0 1.6 0.00 0.00 0.00 44 1009.0
20260508012052 12 123 0.0 1.6 0.00 0.00 0.00 42 1009.0
20260508012036 12 123 0.0 1.6 0.00 0.00 0.00 43 1009.0
20260508012003 12 123 0.0 1.6 0.00 0.00 0.00 42 1009.0
20260508011604 12 123 0.0 1.6 0.00 0.00 0.00 41 1009.0
20260508011403 12 123 0.0 0.0 0.00 0.00 0.00 36 1008.9
20260508011239 12 123 0.0 0.0 0.00 0.00 0.00 36 1009.0
20260508011203 12 123 0.0 0.0 0.00 0.00 0.00 35 1009.0
20260508011004 12 123 0.0 0.0 0.00 0.00 0.00 35 1009.0
20260508010805 13 123 0.0 0.0 0.00 0.00 0.00 35 1009.0
20260508010740 13 123 0.0 0.0 0.00 0.00 0.00 35 1009.0
20260508010653 13 123 0.0 0.0 0.00 0.00 0.00 35 1008.9
20260508010355 13 123 0.0 0.0 0.00 0.00 0.00 35 1009.0
20260508010241 13 123 0.0 0.0 0.00 0.00 0.00 35 1008.9
20260508010157 13 123 0.0 0.0 0.00 0.00 0.00 36 1009.0
20260508005955 13 123 0.0 1.6 0.00 0.00 0.00 38 1008.9
20260508005755 13 123 0.0 1.6 0.00 0.00 0.00 37 1008.9
20260508005738 13 123 0.0 1.6 0.00 0.00 0.00 35 1008.9
20260508005556 13 123 0.0 1.6 0.00 0.00 0.00 35 1008.9
20260508005353 13 123 0.0 3.2 0.00 0.00 0.00 35 1009.0
20260508005238 13 123 0.0 3.2 0.00 0.00 0.00 35 1009.0
20260508005153 13 123 0.0 3.2 0.00 0.00 0.00 36 1008.9
20260508005057 13 123 0.0 3.2 0.00 0.00 0.00 37 1008.9
20260508004738 13 123 0.0 4.8 0.00 0.00 0.00 36 1008.9
20260508004550 13 123 0.0 4.8 0.00 0.00 0.00 35 1008.9
20260508004349 13 106 0.0 4.8 0.00 0.00 0.00 35 1008.9
20260508004238 13 106 0.0 4.8 0.00 0.00 0.00 37 1008.9
20260508004148 13 106 0.0 4.8 0.00 0.00 0.00 37 1008.9
20260508003950 13 100 0.0 4.8 0.00 0.00 0.00 35 1008.9
20260508003849 13 230 0.0 4.8 0.00 0.00 0.00 36 1008.9
20260508003736 13 230 0.0 6.4 0.00 0.00 0.00 36 1008.9
20260508003546 14 230 0.0 6.4 0.00 0.00 0.00 34 1008.9
20260508003344 14 230 0.0 6.4 0.00 0.00 0.00 34 1008.8
20260508003237 14 230 0.0 6.4 0.00 0.00 0.00 36 1008.9
20260508003143 14 230 0.0 6.4 0.00 0.00 0.00 36 1008.9
20260508002943 14 230 0.0 6.4 0.00 0.00 0.00 34 1008.8
20260508002745 14 244 0.0 8.0 0.00 0.00 0.00 33 1008.8
20260508002736 14 262 0.0 8.0 0.00 0.00 0.00 33 1008.8
20260508002544 14 262 0.0 8.0 0.00 0.00 0.00 34 1008.9
20260508002339 14 262 0.0 8.0 0.00 0.00 0.00 33 1008.9
20260508002246 14 247 0.0 8.0 0.00 0.00 0.00 33 1008.9
20260508002234 14 261 0.0 8.0 0.00 0.00 0.00 33 1008.8
20260508002039 14 235 0.0 4.8 0.00 0.00 0.00 33 1008.9
20260508002021 14 245 0.0 8.0 0.00 0.00 0.00 33 1008.9
20260508001950 14 235 0.0 4.8 0.00 0.00 0.00 33 1008.9
20260508001537 14 237 0.0 4.8 0.00 0.00 0.00 34 1008.8
20260508001338 14 237 0.0 6.4 0.00 0.00 0.00 33 1008.9
20260508001231 14 237 0.0 6.4 0.00 0.00 0.00 34 1008.9
20260508001131 14 237 0.0 6.4 0.00 0.00 0.00 32 1008.8
20260508001041 14 237 0.0 6.4 0.00 0.00 0.00 35 1008.9
20260508001018 14 237 0.0 6.4 0.00 0.00 0.00 32 1008.9
20260508000949 14 237 0.0 6.4 0.00 0.00 0.00 35 1008.9
20260508000635 14 237 0.0 6.4 0.00 0.00 0.00 32 1009.0
20260508000334 15 227 0.0 8.0 0.00 0.00 0.00 35 1008.9
20260508000242 15 227 0.0 8.0 0.00 0.00 0.00 32 1008.9
20260508000234 15 227 0.0 8.0 0.00 0.00 0.00 32 1008.8
20260508000008 15 227 0.0 8.0 0.00 0.00 0.00 32 1009.0
20260507235952 15 227 0.0 8.0 0.00 0.00 0.00 33 1008.9
20260507235918 15 227 0.0 8.0 0.00 0.00 0.00 32 1009.0
20260507235509 15 209 0.0 6.4 0.00 0.00 0.00 31 1009.0
20260507235309 15 190 0.0 4.8 0.00 0.00 0.00 32 1009.0
20260507235209 15 190 0.0 4.8 0.00 0.00 0.00 32 1009.0
20260507235105 15 190 0.0 4.8 0.00 0.00 0.00 31 1009.0
20260507234904 15 190 0.0 4.8 0.00 0.00 0.00 32 1009.1
20260507234711 15 190 0.0 4.8 0.00 0.00 0.00 32 1009.0
20260507234704 15 190 0.0 4.8 0.00 0.00 0.00 32 1009.1
20260507234607 15 219 0.0 4.8 0.00 0.00 0.00 31 1009.0
20260507234304 15 219 0.0 4.8 0.00 0.00 0.00 31 1009.1
20260507234207 15 219 0.0 8.0 0.00 0.00 0.00 31 1009.1
20260507234041 15 219 0.0 9.7 0.00 0.00 0.00 33 1009.1
20260507233958 15 233 0.0 9.7 0.00 0.00 0.00 31 1009.2
20260507233942 15 219 0.0 9.7 0.00 0.00 0.00 30 1009.2
20260507233640 15 233 0.0 9.7 0.00 0.00 0.00 31 1009.2
20260507233439 15 240 0.0 9.7 0.00 0.00 0.00 31 1009.2
20260507233241 15 252 0.0 9.7 0.00 0.00 0.00 31 1009.2
20260507233207 15 254 0.0 9.7 0.00 0.00 0.00 31 1009.2
20260507233044 15 47 0.0 6.4 0.00 0.00 0.00 32 1009.2
20260507233039 15 183 0.0 6.4 0.00 0.00 0.00 32 1009.2
20260507232948 15 47 0.0 6.4 0.00 0.00 0.00 31 1009.2
20260507232638 15 47 0.0 6.4 0.00 0.00 0.00 30 1009.2
20260507232440 15 61 0.0 6.4 0.00 0.00 0.00 30 1009.2
20260507232208 15 45 0.0 11.3 0.00 0.00 0.00 31 1009.2
20260507232031 15 45 0.0 11.3 0.00 0.00 0.00 28 1009.2
20260507231941 15 204 0.0 11.3 0.00 0.00 0.00 32 1009.3
20260507231930 15 204 0.0 11.3 0.00 0.00 0.00 30 1009.2
20260507231613 15 237 0.0 11.3 0.00 0.00 0.00 30 1009.3
20260507231513 16 255 0.0 11.3 0.00 0.00 0.00 28 1009.3
20260507231219 16 250 0.0 9.7 0.00 0.00 0.00 30 1009.2
20260507231208 16 245 0.0 8.0 0.00 0.00 0.00 33 1009.2
20260507231013 16 252 0.0 6.4 0.00 0.00 0.00 34 1009.3
20260507230811 15 254 0.0 8.0 0.00 0.00 0.00 31 1009.3
20260507230708 15 254 0.0 8.0 0.00 0.00 0.00 30 1009.2
20260507230613 15 254 0.0 8.0 0.00 0.00 0.00 31 1009.2
20260507230507 15 254 0.0 9.7 0.00 0.00 0.00 29 1009.3
20260507230450 15 254 0.0 9.7 0.00 0.00 0.00 29 1009.2
20260507230421 15 254 0.0 9.7 0.00 0.00 0.00 29 1009.2
20260507230007 15 254 0.0 9.7 0.00 0.00 0.00 31 1009.2
20260507225905 15 257 0.0 9.7 0.00 0.00 0.00 32 1009.3
20260507225702 15 257 0.0 9.7 0.00 0.00 0.00 31 1009.3
20260507225605 15 264 0.0 9.7 0.00 0.00 0.00 32 1009.3
20260507225503 15 203 0.0 9.7 0.00 0.00 0.00 30 1009.4
20260507225448 15 48 0.0 9.7 0.00 0.00 0.00 31 1009.3
20260507225420 15 203 0.0 9.7 0.00 0.00 0.00 30 1009.4
20260507225007 15 207 0.0 9.7 0.00 0.00 0.00 32 1009.4
20260507224805 15 252 0.0 9.7 0.00 0.00 0.00 31 1009.5
20260507224702 15 243 0.0 9.7 0.00 0.00 0.00 30 1009.4
20260507224603 15 241 0.0 9.7 0.00 0.00 0.00 30 1009.4
20260507224446 15 244 0.0 14.5 0.00 0.00 0.00 29 1009.5
20260507224434 15 244 0.0 14.5 0.00 0.00 0.00 29 1009.4
20260507224153 15 244 0.0 14.5 0.00 0.00 0.00 29 1009.5
20260507223952 15 244 0.0 14.5 0.00 0.00 0.00 29 1009.5
20260507223753 15 244 0.0 14.5 0.00 0.00 0.00 29 1009.4
20260507223706 15 244 0.0 14.5 0.00 0.00 0.00 29 1009.5
20260507223533 15 244 0.0 14.5 0.00 0.00 0.00 30 1009.4
20260507223333 15 226 0.0 14.5 0.00 0.00 0.00 31 1009.5
20260507223203 15 223 0.0 11.3 0.00 0.00 0.00 29 1009.5
20260507223133 15 223 0.0 11.3 0.00 0.00 0.00 32 1009.5
20260507223026 15 237 0.0 14.5 0.00 0.00 0.00 29 1009.5
20260507222732 15 233 0.0 14.5 0.00 0.00 0.00 30 1009.5
20260507222700 15 247 0.0 14.5 0.00 0.00 0.00 30 1009.5
20260507222531 15 228 0.0 14.5 0.00 0.00 0.00 31 1009.5
20260507222333 15 250 0.0 14.5 0.00 0.00 0.00 30 1009.5
20260507222159 15 265 0.0 14.5 0.00 0.00 0.00 32 1009.5
20260507222130 15 254 0.0 14.5 0.00 0.00 0.00 32 1009.4
20260507222003 15 309 0.0 14.5 0.00 0.00 0.00 34 1009.5
20260507221951 15 228 0.0 11.3 0.00 0.00 0.00 31 1009.4
20260507221923 15 227 0.0 14.5 0.00 0.00 0.00 33 1009.5
20260507221527 15 283 0.0 14.5 0.00 0.00 0.00 31 1009.4
20260507221424 15 283 0.0 14.5 0.00 0.00 0.00 30 1009.4
20260507221200 15 227 0.0 14.5 0.00 0.00 0.00 30 1009.4
20260507221116 15 227 0.0 14.5 0.00 0.00 0.00 32 1009.5
20260507221007 15 231 0.0 14.5 0.00 0.00 0.00 29 1009.5
20260507220952 15 209 0.0 14.5 0.00 0.00 0.00 33 1009.5
20260507220920 15 233 0.0 14.5 0.00 0.00 0.00 29 1009.5
20260507220509 15 257 0.0 11.3 0.00 0.00 0.00 31 1009.6
20260507220306 15 258 0.0 16.1 0.00 0.00 0.00 30 1009.6
20260507220156 15 224 0.0 16.1 0.00 0.00 0.00 33 1009.5
20260507220107 15 238 0.0 16.1 0.00 0.00 0.00 32 1009.5
20260507220010 15 41 0.0 17.7 0.00 0.00 0.00 32 1009.7
20260507215948 15 255 0.0 16.1 0.00 0.00 0.00 30 1009.6
20260507215919 15 41 0.0 17.7 0.00 0.00 0.00 32 1009.7
20260507215506 15 240 0.0 17.7 0.00 0.00 0.00 30 1009.7
20260507215307 15 281 0.0 17.7 0.00 0.00 0.00 33 1009.7
20260507215211 15 223 0.0 17.7 0.00 0.00 0.00 32 1009.6
20260507215157 15 247 0.0 17.7 0.00 0.00 0.00 32 1009.6
20260507214907 15 261 0.0 17.7 0.00 0.00 0.00 31 1009.5
20260507214655 15 245 0.0 8.0 0.00 0.00 0.00 33 1009.6
20260507214459 15 37 0.0 16.1 0.00 0.00 0.00 32 1009.7
20260507214441 15 230 0.0 16.1 0.00 0.00 0.00 30 1009.6
20260507214420 15 13 0.0 16.1 0.00 0.00 0.00 32 1009.6
20260507214045 15 238 0.0 16.1 0.00 0.00 0.00 29 1009.7
20260507213844 15 240 0.0 16.1 0.00 0.00 0.00 32 1009.7
20260507213653 15 226 0.0 16.1 0.00 0.00 0.00 31 1009.7
20260507213647 15 238 0.0 16.1 0.00 0.00 0.00 31 1009.7
20260507213548 15 227 0.0 16.1 0.00 0.00 0.00 33 1009.7
20260507213452 15 209 0.0 16.1 0.00 0.00 0.00 32 1009.8
20260507213419 15 210 0.0 16.1 0.00 0.00 0.00 33 1009.8
20260507213034 15 244 0.0 16.1 0.00 0.00 0.00 31 1009.8
20260507212835 15 213 0.0 16.1 0.00 0.00 0.00 34 1009.8
20260507212651 15 248 0.0 16.1 0.00 0.00 0.00 34 1009.8
20260507212627 15 255 0.0 16.1 0.00 0.00 0.00 34 1009.8
20260507212459 15 228 0.0 14.5 0.00 0.00 0.00 31 1009.8
20260507212441 15 251 0.0 14.5 0.00 0.00 0.00 33 1009.9
20260507212413 15 220 0.0 14.5 0.00 0.00 0.00 31 1009.8
20260507212006 15 34 0.0 14.5 0.00 0.00 0.00 30 1009.8
20260507211806 15 231 0.0 14.5 0.00 0.00 0.00 35 1009.9
20260507211705 15 282 0.0 11.3 0.00 0.00 0.00 34 1009.9
20260507211651 15 268 0.0 11.3 0.00 0.00 0.00 34 1009.8
20260507211408 14 257 0.0 11.3 0.00 0.00 0.00 35 1009.9
20260507211209 14 252 0.0 11.3 0.00 0.00 0.00 31 1009.9
20260507211151 14 252 0.0 11.3 0.00 0.00 0.00 31 1009.9
20260507211008 14 252 0.0 11.3 0.00 0.00 0.00 31 1009.9
20260507210756 15 257 0.0 11.3 0.00 0.00 0.00 31 1009.9
20260507210654 15 247 0.0 6.4 0.00 0.00 0.00 31 1010.0
20260507210532 15 212 0.0 6.4 0.00 0.00 0.00 32 1009.9
20260507210332 15 212 0.0 11.3 0.00 0.00 0.00 32 1010.0
20260507210132 15 212 0.0 11.3 0.00 0.00 0.00 34 1010.0
20260507210116 15 213 0.0 11.3 0.00 0.00 0.00 31 1010.0
20260507210031 15 48 0.0 11.3 0.00 0.00 0.00 34 1010.0
20260507205933 14 226 0.0 11.3 0.00 0.00 0.00 35 1010.0
20260507205900 14 226 0.0 11.3 0.00 0.00 0.00 36 1010.0
20260507205513 14 224 0.0 11.3 0.00 0.00 0.00 33 1010.0
20260507205313 14 226 0.0 11.3 0.00 0.00 0.00 35 1010.2
20260507205130 14 261 0.0 11.3 0.00 0.00 0.00 32 1010.0
20260507205115 14 248 0.0 11.3 0.00 0.00 0.00 32 1010.0
20260507204934 14 32 0.0 9.7 0.00 0.00 0.00 32 1010.1
20260507204927 14 220 0.0 9.7 0.00 0.00 0.00 35 1010.1
20260507204855 14 286 0.0 9.7 0.00 0.00 0.00 34 1010.2
20260507204511 13 228 0.0 9.7 0.00 0.00 0.00 36 1010.2
20260507204404 13 203 0.0 9.7 0.00 0.00 0.00 37 1010.1
20260507204133 13 203 0.0 9.7 0.00 0.00 0.00 32 1010.2
20260507204055 13 203 0.0 9.7 0.00 0.00 0.00 32 1010.2
20260507203940 13 252 0.0 11.3 0.00 0.00 0.00 36 1010.2
20260507203927 13 255 0.0 9.7 0.00 0.00 0.00 36 1010.2
20260507203853 13 237 0.0 11.3 0.00 0.00 0.00 36 1010.3
20260507203453 13 227 0.0 11.3 0.00 0.00 0.00 32 1010.3
20260507203252 13 235 0.0 11.3 0.00 0.00 0.00 32 1010.4